www.pogodaiklimat.ru

Погода и климат >> Архив погоды >> Пакистан >> Бахавалнагар


ПОГОДА в Бахавалнагаре

  • Прогноз погоды в Бахавалнагаре
  • Монитор погоды в Бахавалнагаре

АРХИВ ПОГОДЫ в Бахавалнагаре

Время (UTC), дата Ветер
(напр.,м/с)
 
Видим.   Явления Облачность Т
(С)
Тd
(С)
f
(%)
Тe
(С)
Тes
(С)
Комфортность P
(гПа)
Po
(гПа)
Тmin
(С)
Tmax
(С)
R
(мм)
R24
(мм)
S
(см)
21 16.09 штиль 0 4000 м ясно +32.5 +25.5 67 +47 +47 опасность
перегрева
1000.4 1000.0
00 17.09 штиль 0 4000 м ясно +29.5 +25.3 78 +43 +43 опасность
перегрева
1000.7 1000.0
03 17.09 штиль 0 10 км ясно +31.0 +24.6 69 +44 +49 опасность
перегрева
1001.6 1000.0 +29.1
06 17.09 штиль 0 10 км ясно +35.0 +23.7 52 +46 +67 опасность
перегрева
1003.8 1000.0
09 17.09 штиль 0 10 км ясно +38.0 +24.0 45 +49 +67 опасность
перегрева
1003.0 1000.0
12 17.09 штиль 0 10 км ясно +39.0 +23.5 41 +49 +51 опасность
перегрева
1001.2 1000.0 +40.1
15 17.09 штиль 0 4000 м ясно +36.0 +24.9 53 +49 +49 опасность
перегрева
1002.4 984.5
18 17.09 штиль 0 4000 м ясно +33.0 +24.6 61 +46 +46 опасность
перегрева
1003.5 1000.0
21 17.09 штиль 0 4000 м ясно +31.0 +25.4 72 +45 +45 опасность
перегрева
1002.5 1000.0
00 18.09 штиль 0 4000 м ясно +28.5 +25.0 81 +41 +41 опасность
перегрева
1001.7 1000.0
03 18.09 штиль 0 4000 м ясно +30.0 +25.1 75 +43 +48 опасность
перегрева
1003.7 1000.0 +28.1
06 18.09 штиль 0 10 км ясно +35.0 +24.5 55 +48 +68 опасность
перегрева
1006.4 1000.0
09 18.09 штиль 0 10 км ясно +38.0 +24.0 45 +49 +67 опасность
перегрева
1005.5 987.7
12 18.09 штиль 0 10 км ясно +38.0 +24.0 45 +49 +51 опасность
перегрева
1004.3 1000.0 +39.1
15 18.09 штиль 0 4000 м ясно +35.0 +24.5 55 +48 +48 опасность
перегрева
1006.1 1000.0
18 18.09 штиль 0 4000 м ясно +32.0 +25.0 67 +46 +46 опасность
перегрева
1006.9 1000.0
21 18.09 штиль 0 4000 м ясно +30.0 +25.1 75 +43 +43 опасность
перегрева
1006.1 987.8
00 19.09 штиль 0 4000 м ясно +28.0 +23.7 77 +38 +38 очень
душно
1005.6 1000.0
03 19.09 штиль 0 4000 м ясно +30.0 +23.5 68 +41 +46 опасность
перегрева
1008.2 1000.0 +27.5
06 19.09 штиль 0 4000 м ясно +34.5 +23.1 52 +45 +65 опасность
перегрева
1009.9 1000.0
09 19.09 штиль 0 10 км ясно +38.0 +23.1 43 +48 +65 опасность
перегрева
1006.6 1000.0
12 19.09 штиль 0 10 км 5/0
[As op]
+38.0 +23.1 43 +48 +49 опасность
перегрева
1005.5 1000.0 +39.1
15 19.09 штиль 0 4000 м 5/0 1200 м
[As op]
+34.5 +23.1 52 +45 +45 опасность
перегрева
1007.0 1000.0
18 19.09 штиль 0 4000 м ясно +33.0 +23.0 56 +43 +43 опасность
перегрева
1008.0 1000.0
21 19.09 штиль 0 4000 м ясно +30.0 +24.3 72 +42 +42 опасность
перегрева
1007.0 1000.0
00 20.09 штиль 0 4000 м ясно +27.0 +23.4 81 +37 +37 очень
душно
1006.5 1000.0
03 20.09 штиль 0 10 км ясно +28.5 +24.2 78 +40 +45 очень
душно
1009.3 1000.0 +26.5
06 20.09 штиль 0 10 км ясно +34.0 +24.1 56 +46 +66 опасность
перегрева
1009.9 991.7
09 20.09 штиль 0 10 км 5/0
[As op]
+36.0 +23.2 48 +46 +57 опасность
перегрева
1006.8 1000.0
12 20.09 С 2 10 км ясно +36.0 +23.2 48 +46 +48 опасность
перегрева
1005.8 987.8 +37.0
15 20.09 штиль 0 4000 м ясно +33.0 +23.0 56 +43 +43 опасность
перегрева
1007.3 1000.0
18 20.09 штиль 0 4000 м ясно +31.0 +23.9 66 +43 +43 опасность
перегрева
1008.1 1000.0
21 20.09 штиль 0 4000 м ясно +28.0 +23.7 77 +38 +38 очень
душно
1007.4 988.9
00 21.09 штиль 0 4000 м ясно +26.0 +23.1 84 +35 +35 очень
душно
1006.6 988.0
03 21.09 штиль 0 10 км ясно +28.0 +24.4 81 +39 +44 очень
душно
1008.5 1000.0 +25.5
06 21.09 штиль 0 10 км ясно +33.0 +24.6 61 +46 +66 опасность
перегрева
1009.0 1000.0
09 21.09 штиль 0 10 км 4/0
[As op]
+35.0 +23.7 52 +46 +58 опасность
перегрева
1007.0 1000.0
12 21.09 штиль 0 10 км ясно +35.0 +23.7 52 +46 +48 опасность
перегрева
1003.9 1000.0 +36.1
15 21.09 штиль 0 4000 м ясно +32.0 +23.4 60 +43 +43 опасность
перегрева
1005.6 1000.0
18 21.09 штиль 0 4000 м ясно +30.5 +23.3 65 +41 +41 опасность
перегрева
1006.2 987.9
21 21.09 штиль 0 4000 м ясно +28.0 +23.7 77 +38 +38 очень
душно
1005.7 987.3
00 22.09 штиль 0 4000 м ясно +26.0 +23.1 84 +35 +35 очень
душно
1005.0 1000.0
03 22.09 штиль 0 10 км ясно +28.0 +23.7 77 +38 +43 очень
душно
1007.4 1000.0 +25.5
06 22.09 штиль 0 10 км ясно +34.0 +23.3 54 +45 +65 опасность
перегрева
1008.5 1000.0
09 22.09 штиль 0 4000 м ясно +36.0 +23.2 48 +46 +63 опасность
перегрева
1006.8 1000.0
12 22.09 штиль 0 10 км ясно +36.0 +23.2 48 +46 +48 опасность
перегрева
1004.6 1000.0 +37.1
15 22.09 штиль 0 4000 м ясно +33.0 +23.0 56 +43 +43 опасность
перегрева
1006.2 1000.0
18 22.09 штиль 0 4000 м ясно +31.0 +23.9 66 +43 +43 опасность
перегрева
1008.2 1000.0
21 22.09 штиль 0 4000 м ясно +28.0 +23.7 77 +38 +38 очень
душно
1006.5 1000.0
00 23.09 штиль 0 4000 м ясно +26.0 +23.1 84 +35 +35 очень
душно
1006.7 988.1
03 23.09 штиль 0 10 км ясно +27.5 +23.9 81 +38 +43 очень
душно
1008.5 990.0 +25.5
06 23.09 штиль 0 10 км ясно +33.0 +23.0 56 +43 +63 опасность
перегрева
1010.2 1000.0
09 23.09 штиль 0 10 км 4/0
[As op]
+35.0 +23.7 52 +46 +57 опасность
перегрева
1008.0 1000.0
12 23.09 штиль 0 10 км ясно +34.0 +23.3 54 +45 +46 опасность
перегрева
1006.4 1000.0 +36.1
15 23.09 штиль 0 4000 м ясно +31.0 +23.9 66 +43 +43 опасность
перегрева
1007.8 989.5
18 23.09 штиль 0 4000 м ясно +29.0 +23.2 71 +39 +39 очень
душно
1008.9 1000.0

 

Местоположение метеостанции Бахавалнагар (Пакистан): широта 29.95 долгота 73.25 высота над уровнем моря 163 м.

В архиве по умолчанию представлена погода в Бахавалнагаре за последнюю неделю. Архивные данные за месяц целиком и за предыдущие месяцы, начиная с января 2011 года, Вы можете получить, выбрав интересующий диапазон дат из раскрывающегося списка и нажав кнопку "Ввод!".


*Определитесь, кто Вы:
робот инопланетянин человек

Внимание! Время в таблицах - всемирное. Для получения местного времени необходимо прибавить поправку, которая равна 5 ч.

Смотрите также архив погоды в соседних городах и на ближайших метеорологических станциях:

Погода в Шри-Ганганагаре (Раджастхан, Индия) (62 км)
Погода в Сахивале (Пакистан) (82 км)
Погода в Окаре (Пакистан) (96 км)
Погода в Ханевале (Пакистан) (136 км)
Погода на Авиабазе Raifiqui (Пакистан) (137 км)
Погода в Тоба Тек Сингх (Пакистан) (137 км)
Погода в Бахавалпуре (Пакистан) (155 км)
Погода а Бахавалпур аэропорту (Пакистан) (155 км)
Погода в Фейсалабаде (Пакистан) (165 км)
Погода в Джанге (Пакистан) (172 км)

Пояснения к столбцам:

Ветер - указаны скорость ветра в м/с - средняя за 10 мин, порывы в срок и между сроками (в фигурных скобках) и направление, откуда дует ветер: С - северный, СВ - северо-восточный, В - восточный, ЮВ - юго-восточный, Ю - южный, ЮЗ - юго-западный, З - западный, СЗ - северо-западный.
Видимость - горизонтальная дальность видимости в метрах или километрах. При видимости от 1 до 10 км при отсутствии осадков обычно наблюдается дымка, при ухудшении видимости до 1 км и менее - туман. В сухую погоду видимость может ухудшаться дымом, пылью или мглою.
Явления - указаны атмосферные явления, наблюдавшиеся в срок или в последний час перед сроком; фигурными скобками обозначены явления, наблюдавшиеся между сроками (за 1-3 часа до срока); квадратными скобками обозначены град или гололедные отложения с указанием их диаметра в мм.
Облачность - указаны через наклонную черту общая и нижняя облачность в баллах и высота нижней границы облаков в метрах; квадратными скобками обозначены формы облаков: Ci - перистые, Cs - перисто-слоистые, Cc - перисто-кучевые, Ac - высококучевые, As - высокослоистые, Sc - слоисто-кучевые, Ns - слоисто-дождевые, Cu - кучевые, Cb - кучево-дождевые. Подробнее классификацию облаков см. в Атласе облаков (PDF).
T - Температура воздуха - температура, измеренная на высоте 2 м над землей.
Td - Температура точки росы - температура, при понижении до которой содержащийся в воздухе водяной пар достигнет насыщения.
f - Относительная влажность воздуха - влажноcть воздуха, измеренная на высоте 2 м над землей.
Te - Эффективная температура - температура, которую ощущает одетый по сезону человек в тени. Характеристика душности погоды. При расчете учитывается влияние влажности воздуха и скорости ветра на теплоощущения человека.
Tes - Эффективная температура на солнце - температура, которую ощущает человек, с поправкой на солнечный нагрев. Характеристика знойности погоды. Зависит от высоты солнца над горизонтом, облачности и скорости ветра. Ночью, в пасмурную погоду, а также при ветре 12 м/с и более поправка равна нулю.
P - Атмосферное давление - приведенное к уровню моря атмосферное давление.
Po - Атмосферное давление - измеренное на уровне метеостанции атмосферное давление.
Tmin - Минимальная температура - минимум температуры воздуха на высоте 2 м над землей.
Tmax - Максимальная температура - максимум температуры воздуха на высоте 2 м над землей.
R - Количество осадков - Количество выпавших осадков за период времени, мм. При наведении курсора мыши на число - период времени, за который выпало указанное количество осадков.
R24 - Количество осадков - Количество выпавших осадков за 24 часа, мм.
S - Снежный покров - Высота снежного покрова, см. При наведении курсора мыши на число - состояние снежного покрова и степень покрытия местности в баллах.